| time (UTC) | temp C | wind direction | speed KPH | gust KPH | rain 1hr cm | rain 24hr cm | rain mn cm | humidity % | barometer mb |
| 20260906024603 | 15 | 26 | 0.0 | 4.8 | 0.00 | 0.00 | 0.00 | 83 | 1011.4 |
| 20260906023058 | 15 | 265 | 0.0 | 4.8 | 0.00 | 0.00 | 0.00 | 83 | 1011.2 |
| 20260906021605 | 15 | 111 | 1.6 | 8.0 | 0.00 | 0.00 | 0.00 | 83 | 1011.1 |
| 20260906014559 | 16 | 59 | 0.0 | 4.8 | 0.00 | 0.00 | 0.00 | 83 | 1011.0 |
| 20260906013157 | 16 | 9 | 0.0 | 3.2 | 0.00 | 0.00 | 0.00 | 84 | 1011.2 |
| 20260906011557 | 16 | 330 | 0.0 | 3.2 | 0.00 | 0.00 | 0.00 | 83 | 1011.0 |
| 20260906010105 | 16 | 329 | 0.0 | 1.6 | 0.00 | 0.00 | 0.00 | 83 | 1011.1 |
| 20260906004557 | 17 | 329 | 0.0 | 1.6 | 0.00 | 0.00 | 0.00 | 81 | 1011.0 |
| 20260906003052 | 17 | 329 | 0.0 | 3.2 | 0.00 | 0.00 | 0.00 | 83 | 1010.9 |
| 20260906001600 | 17 | 329 | 0.0 | 4.8 | 0.00 | 0.00 | 0.00 | 81 | 1010.7 |
| 20260906000050 | 17 | 44 | 0.0 | 1.6 | 0.00 | 0.00 | 0.00 | 80 | 1010.5 |
| 20260905234547 | 17 | 47 | 0.0 | 3.2 | 0.00 | 0.00 | 0.00 | 80 | 1010.5 |
| 20260905233047 | 17 | 75 | 0.0 | 3.2 | 0.00 | 0.00 | 0.00 | 82 | 1010.3 |
| 20260905231546 | 17 | 74 | 0.0 | 1.6 | 0.00 | 0.00 | 0.00 | 81 | 1010.3 |
| 20260905230051 | 18 | 74 | 0.0 | 1.6 | 0.00 | 0.00 | 0.00 | 77 | 1010.1 |
| 20260905224544 | 18 | 74 | 0.0 | 1.6 | 0.00 | 0.00 | 0.00 | 75 | 1010.2 |
| 20260905223043 | 19 | 5 | 3.2 | 9.7 | 0.00 | 0.00 | 0.00 | 72 | 1010.0 |
| 20260905221546 | 19 | 37 | 0.0 | 6.4 | 0.00 | 0.00 | 0.00 | 75 | 1009.8 |
| 20260905220035 | 20 | 53 | 0.0 | 3.2 | 0.00 | 0.00 | 0.00 | 76 | 1009.7 |
| 20260905214533 | 20 | 29 | 1.6 | 11.3 | 0.00 | 0.00 | 0.00 | 70 | 1009.4 |
| 20260905213035 | 20 | 12 | 0.0 | 8.0 | 0.00 | 0.00 | 0.00 | 74 | 1009.3 |
| 20260905211542 | 20 | 94 | 1.6 | 11.3 | 0.00 | 0.00 | 0.00 | 72 | 1009.2 |
| 20260905210031 | 20 | 320 | 1.6 | 9.7 | 0.00 | 0.00 | 0.00 | 68 | 1009.1 |
| 20260905204529 | 21 | 333 | 1.6 | 14.5 | 0.00 | 0.00 | 0.00 | 68 | 1009.0 |
| 20260905203032 | 21 | 227 | 1.6 | 9.7 | 0.00 | 0.00 | 0.00 | 70 | 1008.9 |
| 20260905201534 | 21 | 310 | 3.2 | 9.7 | 0.00 | 0.00 | 0.00 | 68 | 1008.8 |
| 20260905200045 | 21 | 328 | 6.4 | 14.5 | 0.00 | 0.00 | 0.00 | 66 | 1008.8 |
| 20260905194526 | 21 | 355 | 8.0 | 17.7 | 0.00 | 0.00 | 0.00 | 63 | 1008.8 |
| 20260905193025 | 21 | 334 | 4.8 | 19.3 | 0.00 | 0.00 | 0.00 | 65 | 1008.8 |
| 20260905191525 | 21 | 9 | 3.2 | 12.9 | 0.00 | 0.00 | 0.00 | 67 | 1008.8 |
| 20260905190022 | 20 | 330 | 1.6 | 9.7 | 0.00 | 0.00 | 0.00 | 71 | 1008.7 |
| 20260905184621 | 20 | 60 | 4.8 | 14.5 | 0.00 | 0.00 | 0.00 | 71 | 1008.8 |
| 20260905183021 | 20 | 33 | 3.2 | 11.3 | 0.00 | 0.00 | 0.00 | 72 | 1008.7 |
| 20260905181520 | 20 | 42 | 6.4 | 14.5 | 0.00 | 0.00 | 0.00 | 74 | 1008.8 |
| 20260905180020 | 20 | 47 | 1.6 | 9.7 | 0.00 | 0.00 | 0.00 | 76 | 1008.8 |
| 20260905174519 | 19 | 360 | 4.8 | 11.3 | 0.00 | 0.15 | 0.00 | 78 | 1008.8 |
| 20260905173019 | 18 | 29 | 0.0 | 12.9 | 0.00 | 0.15 | 0.00 | 80 | 1008.8 |
| 20260905171534 | 21 | 84 | 11.3 | 17.7 | 0.00 | 0.15 | 0.00 | 70 | 1008.8 |
| 20260905170017 | 20 | 44 | 4.8 | 11.3 | 0.00 | 0.15 | 0.00 | 77 | 1008.7 |
| 20260905164516 | 20 | 91 | 3.2 | 14.5 | 0.00 | 0.15 | 0.00 | 78 | 1008.8 |
| 20260905163018 | 20 | 360 | 4.8 | 9.7 | 0.00 | 0.15 | 0.00 | 74 | 1008.7 |
| 20260905161519 | 20 | 37 | 1.6 | 8.0 | 0.00 | 0.15 | 0.00 | 74 | 1008.8 |
| 20260905160025 | 20 | 63 | 4.8 | 12.9 | 0.00 | 0.15 | 0.00 | 73 | 1008.7 |
| 20260905154507 | 18 | 36 | 1.6 | 6.4 | 0.00 | 0.15 | 0.00 | 81 | 1008.9 |
| 20260905153008 | 18 | 360 | 3.2 | 8.0 | 0.00 | 0.15 | 0.00 | 81 | 1008.9 |
| 20260905151505 | 19 | 51 | 3.2 | 9.7 | 0.00 | 0.15 | 0.00 | 78 | 1008.9 |
| 20260905150002 | 18 | 332 | 6.4 | 11.3 | 0.00 | 0.15 | 0.00 | 81 | 1008.9 |
| 20260905144600 | 17 | 13 | 1.6 | 8.0 | 0.00 | 0.15 | 0.00 | 85 | 1008.8 |
| 20260905143059 | 17 | 27 | 0.0 | 6.4 | 0.00 | 0.15 | 0.00 | 85 | 1008.8 |
| 20260905141557 | 17 | 79 | 3.2 | 12.9 | 0.00 | 0.15 | 0.00 | 84 | 1008.7 |
| 20260905140057 | 18 | 119 | 3.2 | 12.9 | 0.00 | 0.15 | 0.00 | 83 | 1008.5 |
| 20260905134557 | 18 | 79 | 4.8 | 14.5 | 0.00 | 0.15 | 0.00 | 83 | 1008.3 |
| 20260905133051 | 18 | 20 | 0.0 | 6.4 | 0.00 | 0.15 | 0.00 | 84 | 1008.0 |
| 20260905131551 | 18 | 35 | 0.0 | 8.0 | 0.00 | 0.15 | 0.00 | 84 | 1007.9 |
| 20260905130046 | 17 | 355 | 1.6 | 6.4 | 0.00 | 0.15 | 0.00 | 86 | 1007.8 |
| 20260905124549 | 17 | 31 | 3.2 | 16.1 | 0.00 | 0.15 | 0.00 | 85 | 1007.7 |
| 20260905123042 | 17 | 55 | 3.2 | 8.0 | 0.00 | 0.15 | 0.00 | 86 | 1007.5 |
| 20260905121539 | 16 | 41 | 1.6 | 6.4 | 0.00 | 0.15 | 0.00 | 88 | 1007.5 |
| 20260905120037 | 16 | 34 | 1.6 | 6.4 | 0.00 | 0.15 | 0.00 | 89 | 1007.6 |
| 20260905114535 | 15 | 5 | 1.6 | 4.8 | 0.00 | 0.15 | 0.00 | 90 | 1007.5 |
| 20260905113036 | 15 | 18 | 1.6 | 4.8 | 0.00 | 0.15 | 0.00 | 91 | 1007.4 |
| 20260905111532 | 14 | 300 | 0.0 | 3.2 | 0.00 | 0.15 | 0.00 | 91 | 1007.3 |
| 20260905110031 | 13 | 298 | 0.0 | 1.6 | 0.00 | 0.15 | 0.00 | 91 | 1007.2 |
| 20260905104541 | 13 | 298 | 0.0 | 0.0 | 0.00 | 0.15 | 0.00 | 90 | 1007.1 |
| 20260905103032 | 13 | 298 | 0.0 | 3.2 | 0.00 | 0.15 | 0.00 | 90 | 1007.0 |
| 20260905101526 | 13 | 298 | 0.0 | 0.0 | 0.00 | 0.15 | 0.00 | 90 | 1006.9 |
| 20260905100024 | 13 | 298 | 0.0 | 0.0 | 0.00 | 0.15 | 0.00 | 90 | 1006.6 |
| 20260905094523 | 13 | 298 | 0.0 | 0.0 | 0.00 | 0.15 | 0.00 | 90 | 1006.3 |
| 20260905093020 | 13 | 298 | 0.0 | 0.0 | 0.00 | 0.15 | 0.00 | 90 | 1006.3 |
| 20260905091518 | 13 | 298 | 0.0 | 0.0 | 0.00 | 0.15 | 0.00 | 90 | 1006.1 |
| 20260905090021 | 13 | 298 | 0.0 | 1.6 | 0.00 | 0.15 | 0.00 | 89 | 1006.1 |
| 20260905084522 | 14 | 259 | 0.0 | 3.2 | 0.00 | 0.15 | 0.00 | 89 | 1006.1 |
| 20260905083016 | 14 | 259 | 0.0 | 1.6 | 0.00 | 0.15 | 0.00 | 88 | 1005.9 |
| 20260905081511 | 14 | 259 | 0.0 | 0.0 | 0.00 | 0.15 | 0.00 | 89 | 1006.0 |
| 20260905080018 | 15 | 259 | 0.0 | 1.6 | 0.00 | 0.15 | 0.00 | 89 | 1006.0 |
| 20260905074508 | 15 | 259 | 0.0 | 1.6 | 0.00 | 0.15 | 0.00 | 89 | 1006.0 |
| 20260905073019 | 15 | 259 | 0.0 | 3.2 | 0.00 | 0.15 | 0.00 | 89 | 1006.0 |
| 20260905071505 | 15 | 260 | 0.0 | 1.6 | 0.00 | 0.15 | 0.00 | 88 | 1005.9 |
| 20260905070004 | 15 | 260 | 0.0 | 1.6 | 0.00 | 0.15 | 0.00 | 89 | 1006.1 |
| 20260905064504 | 15 | 260 | 0.0 | 1.6 | 0.00 | 0.15 | 0.00 | 88 | 1006.1 |
| 20260905063002 | 15 | 260 | 0.0 | 1.6 | 0.00 | 0.15 | 0.00 | 88 | 1006.2 |
| 20260905061502 | 15 | 260 | 0.0 | 1.6 | 0.00 | 0.15 | 0.00 | 88 | 1006.2 |
| 20260905060001 | 15 | 259 | 0.0 | 1.6 | 0.00 | 0.15 | 0.00 | 88 | 1006.1 |
| 20260905054600 | 15 | 260 | 0.0 | 3.2 | 0.00 | 0.15 | 0.00 | 89 | 1006.1 |
| 20260905053059 | 15 | 264 | 1.6 | 3.2 | 0.00 | 0.15 | 0.00 | 89 | 1006.2 |
| 20260905051557 | 15 | 264 | 0.0 | 1.6 | 0.00 | 0.15 | 0.00 | 88 | 1006.2 |
| 20260905050056 | 15 | 264 | 0.0 | 1.6 | 0.00 | 0.15 | 0.00 | 87 | 1006.3 |
| 20260905044556 | 15 | 264 | 0.0 | 1.6 | 0.00 | 0.15 | 0.00 | 87 | 1006.4 |
| 20260905043113 | 15 | 264 | 0.0 | 1.6 | 0.00 | 0.15 | 0.00 | 87 | 1006.3 |
| 20260905041550 | 15 | 264 | 0.0 | 1.6 | 0.00 | 0.15 | 0.00 | 87 | 1006.2 |
| 20260905040112 | 16 | 264 | 0.0 | 1.6 | 0.00 | 0.15 | 0.00 | 87 | 1006.5 |
| 20260905034546 | 16 | 264 | 0.0 | 1.6 | 0.00 | 0.15 | 0.15 | 87 | 1006.4 |
| 20260905033045 | 16 | 264 | 0.0 | 1.6 | 0.00 | 0.15 | 0.15 | 87 | 1006.4 |
| 20260905031544 | 16 | 264 | 0.0 | 1.6 | 0.00 | 0.15 | 0.15 | 87 | 1006.4 |
| 20260905030045 | 16 | 264 | 0.0 | 3.2 | 0.00 | 0.15 | 0.15 | 87 | 1006.6 |